sat.trackr.live / text

‹ back to catalog

COSMOS 2552

NORAD 49503 · 2021-113A

PAYLOAD ACTIVE UNKNOWN

§ Identity

Operator
Country
CIS
Launch date
2021-11-25
Launch site
PLMSC
Launch vehicle
Mass (kg)
RCS (m²)

External: N2YO · Heavens-Above · Gunter

§ Orbital elements

Epoch: 2026-05-12T01:21:47.979648Z

Period
717.97 min
Inclination
62.8445°
Eccentricity
0.6447392
Mean motion
2.00564720 rev/d
Perigee alt
3,057.7 km
Apogee alt
37,306.5 km
Semi-major
26,560.2 km
B*
0.0000e+0
RAAN
210.7069°
Arg perigee
272.5222°
Mean anomaly
20.5946°
Rev number
3,267

§ Raw data

COSMOS 25521 49503U 21113A   26132.05680532 -.00000293  00000+0  00000+0 0  99952 49503  62.8445 210.7069 6447392 272.5222  20.5946  2.00564720 32674

JSON: /api/v1/satellites/49503 · /tle

For live sub-satellite position, see the globe view (requires WebGL).

§ Visibility from observer

Set your observer location to see the next 7 days of passes ≥ 10°. The values pass through the URL so the page stays shareable.

No JS? Fill the form by hand. The geolocation button needs JavaScript.